Location: Petruro
(41.0333°N, 14.7833°E)
Time: 18:03:26
(UTC+00:00)

Daily predictions for brighter satellites

Satellite Brightness Start Highest point End
(mag) Time Altitude Azimuth Time Altitude Azimuth Time Altitude Azimuth
Ariane Rocket 3.8 19:03:21 10° SE 19:07:57 35° ENE 19:12:34 10° N
H-2A R/B 2.1 19:08:32 10° NNE 19:12:54 65° ESE 19:17:18 10° S
Resurs 01 Rocket 1.9 19:10:34 10° SSE 19:14:52 53° ENE 19:19:12 10° N
USA 308 2.9 19:10:59 10° NW 19:15:09 84° SW 19:19:18 10° SE
USA 305 3.0 19:11:14 10° NW 19:15:21 67° SW 19:19:27 10° SE
Cosmos 292 Rocket 3.7 19:11:01 10° SSW 19:15:46 82° ESE 19:20:32 10° NNE
DELTA 2 R/B (1) 3.6 19:11:38 10° W 19:17:14 77° S 19:22:50 10° E
Lacrosse 4 Rocket 1.3 19:13:45 10° SSW 19:17:55 82° ESE 19:22:03 10° NNE
Okean 2 Rocket 3.2 19:13:30 10° N 19:17:58 80° W 19:22:23 10° S
ATLAS 5 CENTAUR R/B 4.4 19:04:48 10° NW 19:20:38 46° NNE 19:25:13 10° ESE
Cosmos 2151 Rocket 3.7 19:16:59 10° N 19:21:30 84° W 19:26:01 10° S
CZ-4 R/B 4.4 19:20:52 10° WSW 19:22:35 12° W 19:24:17 10° WNW
Tiangong 1.4 19:20:19 10° SW 19:23:21 45° SSE 19:26:26 10° E
USA 267 3.6 19:20:19 10° ENE 19:26:30 43° SE 19:32:39 10° SSW
SL-8 R/B 4.3 19:21:48 10° WSW 19:26:33 61° NNW 19:31:20 10° ENE
BREEZE-M DEB (TANK) 3.6 19:24:32 10° W 19:26:47 25° SSW 19:31:05 10° SSE
Terra 3.8 19:25:04 10° E 19:27:35 14° ENE 19:30:06 10° NNE
FALCON 9 DEB 2.9 19:27:04 10° SW 19:30:18 73° SE 19:33:33 10° NE
Cosmos 2369 Rocket 2.2 19:26:37 10° NNW 19:32:14 87° WSW 19:37:53 10° SSE
SWARM A 4.3 19:28:45 10° S 19:32:16 82° E 19:35:48 10° N
Hubble Space Telescope 3.1 19:32:35 10° SSW 19:32:54 10° SSW 19:33:14 10° S
Cosmos 1378 Rocket 4.3 19:38:36 10° SSW 19:42:57 55° W 19:47:18 10° N
SPOT 3 Rocket 3.9 19:42:03 13° SE 19:46:27 51° ENE 19:51:29 10° N
Cosmos 1437 Rocket 4.2 19:43:31 10° NNW 19:47:09 36° W 19:50:49 10° SSW
ERBS 1.9 19:44:23 10° NW 19:47:24 88° NE 19:49:20 20° SE
ATLAS 2AS CENTAUR R/B 4.3 19:45:01 10° NNW 19:50:49 26° NE 19:56:19 10° E
Cosmos 2251 Rocket 3.6 19:46:02 10° NNW 19:51:24 75° ENE 19:55:48 15° SSE
Lacrosse 5 rocket 3.8 19:49:41 10° N 19:51:48 14° NNE 19:53:59 10° ENE
Cosmos 1656 Rocket 3.9 19:51:17 10° NNW 19:56:43 67° WSW 20:01:37 13° S
Cosmos 1238 Rocket 4.4 19:51:39 10° NNW 19:56:49 55° W 20:02:46 10° S
CZ-4B R/B 2.1 19:54:03 10° N 19:56:50 44° WNW 19:59:35 10° SSW
NOSS 3-4 (A) 4.0 19:50:05 10° NNW 19:57:11 74° NE 20:03:36 17° SE
NOSS 3-4 (C) 4.0 19:50:10 10° NNW 19:57:16 74° NE 20:03:38 17° SE
USA 306 4.2 19:55:51 10° WNW 19:59:25 28° SW 20:02:14 14° S
Atlas Centaur 2 2.8 20:03:59 10° SW 20:06:58 18° S 20:07:33 18° S
Meteor 2-10 Rocket 3.4 20:04:20 10° N 20:09:25 88° W 20:13:20 17° S
S3M 4.2 20:03:15 10° SSW 20:09:28 75° W 20:15:40 10° N
Okean 1 Rocket 3.9 20:05:35 10° NNW 20:09:54 48° W 20:14:11 10° SSW
Cosmos 407 Rocket 3.6 20:06:16 10° NNW 20:11:26 64° ENE 20:14:39 22° SE
USA 245 3.8 20:07:48 17° SSE 20:11:59 85° ENE 20:16:25 10° N
MetOp-B 4.4 20:09:55 13° S 20:14:37 68° WSW 20:19:58 10° NNW
Cosmos 1455 Rocket 3.1 20:10:51 10° N 20:15:10 63° E 20:17:35 25° SSE
SPOT 5 2.9 20:12:47 23° SE 20:15:27 57° ENE 20:19:47 10° N
Cosmos 2056 Rocket 3.7 20:11:49 13° S 20:16:24 54° ESE 20:21:40 10° NNE
Meteor 2-5 Rocket 3.6 20:11:33 13° S 20:16:29 69° E 20:21:59 10° NNE
Cosmos 1025 Rocket 2.9 20:20:19 20° S 20:23:15 78° E 20:27:31 10° N
Cosmos 1271 Rocket 3.9 20:21:29 10° NNE 20:25:03 30° ENE 20:26:12 25° ESE
Cosmos 1300 3.9 20:22:57 10° NNW 20:26:29 38° W 20:29:21 14° SSW
ERS-1 Rocket 3.0 20:24:37 25° SSE 20:27:30 68° ENE 20:32:32 10° N
USA 32 4.1 20:24:16 22° SSE 20:27:34 64° E 20:32:44 10° N
Cosmos 1420 Rocket 4.1 20:25:16 20° S 20:28:45 55° ESE 20:33:54 10° NNE
Cosmos 1607 3.9 20:23:33 10° SSW 20:29:43 66° ESE 20:35:52 10° NE
Cosmos 1140 Rocket 3.6 20:29:50 10° NNW 20:35:01 73° WSW 20:37:57 26° S
Cosmos 1536 Rocket 4.3 20:36:41 31° ESE 20:37:36 34° E 20:41:32 10° NNE
CZ-2C R/B 3.6 20:38:24 10° NNE 20:43:03 88° ESE 20:45:46 24° SSW
Cosmos 1975 Rocket 3.9 20:40:02 12° SSW 20:44:00 50° W 20:48:20 10° N
Lacrosse 5 3.5 20:40:21 10° NNW 20:44:44 28° NNE 20:48:46 11° E
Helios 1A Rocket 3.1 20:43:49 32° S 20:45:33 65° WSW 20:49:36 10° NNW
Resurs 01 Rocket 4.2 20:49:20 10° WSW 20:51:40 14° W 20:53:59 10° WNW
Cosmos 1954 Rocket 4.1 20:46:55 10° NNW 20:52:11 65° ENE 20:54:15 36° SE
SAR-Lupe-4 4.3 20:52:02 10° NNE 20:55:03 35° E 20:55:03 35° E
Tiangong 1.0 20:56:59 10° W 21:00:10 82° N 21:00:12 81° NNE
DELTA 2 R/B (1) 3.9 20:58:05 10° W 21:03:26 46° SSW 21:04:45 39° SSE
Cosmos 1703 3.5 21:03:35 47° E 21:03:39 47° E 21:07:22 10° NNE
Cosmos 2228 3.9 21:00:02 10° NNE 21:03:52 32° ENE 21:04:23 31° E
Terra 2.0 21:02:53 35° S 21:04:46 65° WSW 21:09:31 10° NNW
Cosmos 1544 Rocket 3.6 21:02:02 10° NNW 21:06:20 70° W 21:07:38 43° SSW
USA 267 3.9 21:03:13 10° NE 21:09:36 57° NW 21:15:58 10° WSW
SAR-Lupe-1 3.9 21:07:24 10° NNE 21:10:55 69° E 21:10:55 69° E
Cosmos 1455 2.5 21:10:20 10° NNW 21:14:04 57° W 21:14:42 49° SW
Cosmos 1697 Rocket 4.3 21:13:45 10° N 21:18:16 24° NE 21:20:59 17° E
Cosmos 1452 Rocket 3.5 21:17:03 46° SSE 21:18:20 61° ESE 21:23:32 10° NNE
NOSS 2-1 (C) 4.5 21:15:02 10° NNW 21:19:41 57° NE 21:22:11 34° ESE
RESURS DK-1 4.3 21:19:05 10° N 21:22:10 20° NE 21:23:13 18° ENE
ARIANE 5 R/B 3.2 21:23:37 40° SSW 21:24:47 51° W 21:29:10 10° NNW
Cosmos 2084 4.3 21:26:52 16° WSW 21:29:35 43° NW 21:33:17 10° NNE
NOSS 2-1 (D) 4.3 21:25:18 10° NNW 21:30:04 68° NE 21:32:17 40° SE
ASTEX 1 3.5 21:26:26 10° NNE 21:31:23 57° E 21:32:05 52° SE
Lacrosse 5 rocket 1.4 21:27:31 10° NW 21:31:26 66° NE 21:31:47 62° ENE
Meteor 2-1 Rocket 4.5 21:27:58 10° N 21:33:22 52° ENE 21:34:38 43° ESE
Cosmos 1110 Rocket 4.1 21:35:00 51° SE 21:35:34 54° ESE 21:40:43 10° NNE
Cosmos 2074 Rocket 4.1 21:33:25 10° NNW 21:39:40 70° W 21:42:02 39° SSW
USA 234 3.2 21:38:52 34° ESE 21:41:58 81° NE 21:48:33 10° NW
ATLAS 2AS CENTAUR R/B 2.6 21:35:34 10° NW 21:42:37 83° WSW 21:44:51 46° SSE
Cosmos 1892 Rocket 4.2 21:45:14 43° E 21:45:14 43° E 21:49:11 10° NNE
Cosmos 1833 Rocket 2.7 21:44:37 54° SSE 21:45:27 61° ESE 21:50:59 10° NNE
GP-B 3.4 21:41:19 10° NNE 21:45:39 53° E 21:45:39 53° E
Cosmos 1656 3.6 21:40:12 10° NNW 21:45:41 78° ENE 21:46:54 55° SE
Nadezhda 1 Rocket 4.1 21:54:38 40° SSW 21:56:53 70° W 22:02:59 10° N
Cosmos 2154 Rocket 4.1 21:52:48 10° NNW 21:59:00 70° W 22:00:52 46° SSW
Cosmos 2082 Rocket 3.1 21:59:43 32° E 21:59:43 32° E 22:04:32 10° NE
Cosmos 1741 Rocket 3.9 22:01:00 10° NNW 22:06:20 84° WSW 22:07:02 68° S
COSMOS 2406 3.1 22:25:00 66° SSE 22:25:45 76° ESE 22:31:32 10° NNE
Cosmos 1606 Rocket 4.3 22:23:31 10° NNW 22:27:26 42° W 22:27:26 42° W
H-2A R/B 3.6 22:23:25 10° NNE 22:27:15 73° N 22:27:15 73° N
Cosmos 968 Rocket 4.1 22:22:38 10° N 22:27:39 47° ENE 22:28:30 43° E
Lacrosse 5 1.8 22:23:01 10° NW 22:27:55 67° WSW 22:27:55 67° WSW
Meteor 1-11 4.1 22:30:33 63° SSW 22:31:29 81° W 22:37:07 10° N
SL-8 Rocket 3.9 22:31:59 10° N 22:38:16 89° W 22:39:30 61° S
Cosmos 2369 4.0 22:34:18 10° NNW 22:39:58 59° ENE 22:41:14 48° ESE
Cosmos 2218 Rocket 4.0 22:35:28 10° N 22:41:55 82° E 22:43:17 58° SSE
Cosmos 1408 4.0 22:43:33 34° NNW 22:43:33 34° NNW 22:45:52 10° N
Cosmos 2341 Rocket 4.1 22:37:28 10° NNW 22:43:46 68° W 22:45:04 54° SSW
Cosmos 1825 3.2 22:46:54 43° NNE 22:46:54 43° NNE 22:49:33 10° NNE
ALOS 2 2.9 22:46:37 60° WNW 22:46:37 60° WNW 22:50:34 10° NNW
Cosmos 2366 rocket 3.9 22:45:12 10° N 22:51:32 85° W 22:52:47 60° S
Cosmos 1900 4.4 22:48:00 10° NNW 22:53:11 76° ENE 22:53:35 71° E
Cosmos 1980 Rocket 2.2 22:52:33 10° NNW 22:58:16 73° ENE 22:59:14 59° ESE
Nimbus 7 Rocket 4.3 22:53:38 10° NNE 22:59:32 71° ESE 23:00:23 62° SSE
RESURS DK-1 3.8 22:56:28 10° NW 22:59:03 29° WNW 22:59:03 29° WNW
Cosmos 1992 Rocket 4.1 23:01:48 62° ESE 23:01:49 62° ESE 23:07:00 10° NNE
Cosmos 1697 Rocket 2.9 22:57:05 10° NNW 23:02:32 52° WSW 23:02:41 52° WSW
Cosmos 1812 Rocket 4.1 22:59:40 10° N 23:03:53 51° ENE 23:03:53 51° ENE
Cosmos 1892 4.3 23:06:34 28° WNW 23:06:34 28° WNW 23:09:17 10° NNW
ADEOS Rocket 3.5 23:05:35 49° SSW 23:07:13 60° W 23:14:33 10° NNW
In-Cosmos 22 Rocket 4.5 23:08:21 51° WSW 23:09:17 58° WNW 23:14:47 10° N
ERS-2 3.4 23:06:50 10° N 23:09:26 37° NNW 23:09:26 37° NNW
Cosmos 2084 Rocket 4.2 23:09:26 10° NNW 23:13:11 44° NE 23:13:11 44° NE
Cosmos 1602 Rocket 3.7 23:15:24 70° N 23:15:24 70° N 23:19:16 10° N
Cosmos 2058 Rocket 4.5 23:13:24 10° NNW 23:16:43 28° WNW 23:16:43 28° WNW
USA 234 4.4 23:26:11 26° WSW 23:26:11 26° WSW 23:30:47 10° WNW
Cosmos 2278 3.8 23:20:33 10° NNW 23:26:17 72° ENE 23:27:31 54° SE
Cosmos 2322 Rocket 4.1 23:22:37 10° N 23:27:17 25° NE 23:31:55 10° ESE
CRYOSAT 2 4.3 23:29:07 71° ESE 23:29:24 73° E 23:34:17 10° N
ATLAS 2AS CENTAUR R/B 4.5 23:29:10 10° WNW 23:32:16 14° WSW 23:32:16 14° WSW
Geosat 4.1 23:35:56 55° ESE 23:36:54 69° ENE 23:41:54 10° NNW
CZ-2D R/B 3.8 23:33:57 10° NE 23:37:44 20° E 23:38:50 19° ESE
Cosmos 1953 Rocket 4.4 23:37:53 42° E 23:37:53 42° E 23:42:03 10° NNE
Cosmos 2082 Rocket 3.3 23:41:32 29° W 23:43:30 37° WNW 23:48:48 10° N
Cosmos 1821 Rocket 4.1 23:43:34 10° NNW 23:49:45 62° W 23:50:56 52° SW
ATLAS 5 CENTAUR R/B 1.8 23:51:04 56° NNE 23:51:04 56° NNE 23:54:18 10° NE
Cosmos 1825 Rocket 3.5 23:53:55 75° NW 23:53:55 75° NW 23:58:01 10° N
